Weather History for Ypsilanti, MI

Change the Weather History Date:

Monday, July 29, 2013

  Actual Average Record
Temperature  
Mean Temperature 65 °F -  
Max Temperature 73 °F 82 °F 92 °F (1988)
Min Temperature 57 °F 62 °F 51 °F (1984)
Growing Degree Days 15 (Base 50)    
Moisture  
Dew Point 53 °F    
Average Humidity 66    
Maximum Humidity 78    
Minimum Humidity 49    
Precipitation  
Precipitation 0.01 in - - ()
Sea Level Pressure  
Sea Level Pressure 30.09 in    
Wind  
Wind Speed 8 mph (West)    
Max Wind Speed 13 mph    
Max Gust Speed 20 mph    
Visibility 10 miles    
Events Rain    
Averages and records for this station are not official NWS values.
T = Trace of Precipitation, MM = Missing Value Source: NWS Daily Summary

Daily Weather History Graph

Daily Weather History Graph

Search for Another Location

Airport:

Trip Planner

Search our weather history database for the weather conditions in past years. The results will help you decide how hot, cold, wet, or windy it might be!

Date:

Astronomy

Jul. 29, 2013 Rise Set
Actual Time 6:24 AM EDT 8:56 PM EDT
Civil Twilight 5:52 AM EDT 9:28 PM EDT
Nautical Twilight 5:12 AM EDT 10:07 PM EDT
Astronomical Twilight 4:27 AM EDT 10:52 PM EDT
Moon 12:09 AM EDT (7/29) 2:15 PM EDT (7/29)
Length of Visible Light 15h 36m
Length of Day
14h 32m
Waning Gibbous, 51% of the Moon is Illuminated
Jul 29
Waning Gibbous
Jul 29
Last Quarter
Aug 6
New
Aug 14
First Quarter
Aug 20
Full

Hourly Weather History & Observations

Time (EDT) Temp. Dew Point Humidity Pressure Visibility Wind Dir Wind Speed Gust Speed Precip Events Conditions
12:53 AM 60.1 °F 52.0 °F 75% 30.00 in 10.0 mi SW 5.8 mph - N/A   Overcast
1:53 AM 59.0 °F 51.1 °F 75% 30.00 in 10.0 mi SW 4.6 mph - N/A   Mostly Cloudy
2:53 AM 57.9 °F 51.1 °F 78% 29.99 in 10.0 mi SSW 8.1 mph - N/A   Mostly Cloudy
3:53 AM 59.0 °F 51.1 °F 75% 29.99 in 10.0 mi SSW 8.1 mph - N/A   Overcast
4:53 AM 60.1 °F 51.1 °F 72% 30.00 in 10.0 mi SW 10.4 mph - N/A   Overcast
5:53 AM 60.1 °F 51.1 °F 72% 30.00 in 10.0 mi WSW 10.4 mph - N/A   Overcast
6:53 AM 60.1 °F 52.0 °F 75% 30.02 in 10.0 mi SW 8.1 mph - N/A   Overcast
7:53 AM 60.1 °F 52.0 °F 75% 30.03 in 10.0 mi SW 6.9 mph - N/A   Overcast
8:53 AM 63.0 °F 53.1 °F 70% 30.05 in 10.0 mi WSW 8.1 mph - N/A   Overcast
9:53 AM 64.9 °F 55.0 °F 70% 30.06 in 10.0 mi West 10.4 mph - N/A   Overcast
10:27 AM 64.4 °F 53.6 °F 68% 30.08 in 10.0 mi WSW 10.4 mph - N/A   Overcast
10:38 AM 66.2 °F 53.6 °F 64% 30.08 in 10.0 mi West 9.2 mph - N/A   Overcast
10:53 AM 66.0 °F 54.0 °F 65% 30.07 in 10.0 mi West 11.5 mph - N/A   Overcast
11:40 AM 66.2 °F 55.4 °F 68% 30.09 in 10.0 mi WSW 10.4 mph - 0.00 in   Overcast
11:53 AM 68.0 °F 57.0 °F 68% 30.09 in 10.0 mi WSW 10.4 mph - 0.00 in   Overcast
12:53 PM 66.9 °F 55.0 °F 66% 30.10 in 10.0 mi WSW 12.7 mph - N/A   Overcast
1:07 PM 66.2 °F 55.4 °F 68% 30.11 in 9.0 mi West 10.4 mph - 0.01 in Rain Light Rain
1:29 PM 69.8 °F 55.4 °F 60% 30.11 in 10.0 mi NW 8.1 mph - 0.01 in   Overcast
1:53 PM 66.9 °F 54.0 °F 63% 30.11 in 10.0 mi NW 12.7 mph - 0.01 in   Overcast
2:09 PM 69.8 °F 53.6 °F 56% 30.12 in 10.0 mi WNW 12.7 mph - N/A   Overcast
2:53 PM 72.0 °F 54.0 °F 53% 30.10 in 10.0 mi West 11.5 mph 19.6 mph N/A   Overcast
3:53 PM 70.0 °F 54.0 °F 57% 30.12 in 10.0 mi WNW 12.7 mph - N/A   Overcast
4:53 PM 73.0 °F 55.0 °F 53% 30.12 in 10.0 mi NW 12.7 mph - N/A   Overcast
5:53 PM 73.0 °F 54.0 °F 51% 30.13 in 10.0 mi NW 8.1 mph - N/A   Mostly Cloudy
6:53 PM 72.0 °F 52.0 °F 49% 30.14 in 10.0 mi NW 8.1 mph - N/A   Partly Cloudy
7:53 PM 70.0 °F 53.1 °F 55% 30.15 in 10.0 mi Calm Calm - N/A   Clear
8:53 PM 66.9 °F 53.1 °F 61% 30.16 in 10.0 mi NW 3.5 mph - N/A   Clear
9:53 PM 64.0 °F 53.1 °F 67% 30.18 in 10.0 mi Calm Calm - N/A   Clear
10:53 PM 63.0 °F 54.0 °F 72% 30.19 in 10.0 mi Calm Calm - N/A   Clear
11:53 PM 61.0 °F 53.1 °F 75% 30.19 in 10.0 mi NW 9.2 mph - N/A   Clear